Time,TemperatureF,DewpointF,PressureIn,WindDirection,WindDirectionDegrees,WindSpeedMPH,WindSpeedGustMPH,Humidity,HourlyPrecipIn,Conditions,Clouds,dailyrainin,SoftwareType,DateUTC
2013-09-25 00:00:00,49.6,48.0,29.86,ESE,120,0.0,0.0,94,0.00,,---,0.01,VWS V14.01,2013-09-25 05:00:00,
2013-09-25 00:30:00,49.5,47.6,29.86,ESE,120,0.0,0.0,93,0.00,,---,0.00,VWS V14.01,2013-09-25 05:30:00,
2013-09-25 01:00:00,49.1,47.2,29.86,ESE,120,0.0,0.0,93,0.00,,---,0.00,VWS V14.01,2013-09-25 06:00:00,
2013-09-25 01:30:00,47.8,45.9,29.86,ESE,120,0.0,0.0,93,0.00,,---,0.00,VWS V14.01,2013-09-25 06:30:00,
2013-09-25 02:00:00,47.0,45.4,29.86,ESE,120,0.0,0.0,94,0.00,,---,0.00,VWS V14.01,2013-09-25 07:00:00,
2013-09-25 02:30:00,46.1,44.5,29.86,ESE,120,0.0,0.0,94,0.00,,---,0.00,VWS V14.01,2013-09-25 07:30:00,
2013-09-25 03:00:00,46.2,44.6,29.85,ESE,120,0.0,0.0,94,0.00,,---,0.00,VWS V14.01,2013-09-25 08:00:00,
2013-09-25 03:30:00,47.6,46.2,29.86,ESE,120,0.0,0.0,95,0.00,,---,0.00,VWS V14.01,2013-09-25 08:30:00,
2013-09-25 04:00:00,47.7,46.3,29.87,ESE,120,0.0,0.0,95,0.00,,---,0.00,VWS V14.01,2013-09-25 09:00:00,
2013-09-25 04:30:00,47.9,46.5,29.87,ESE,120,0.0,0.0,95,0.00,,---,0.00,VWS V14.01,2013-09-25 09:30:00,
2013-09-25 05:00:00,46.9,45.5,29.88,ESE,120,0.0,0.0,95,0.00,,---,0.00,VWS V14.01,2013-09-25 10:00:00,
2013-09-25 05:30:00,45.6,44.2,29.88,ESE,120,0.0,0.0,95,0.00,,---,0.00,VWS V14.01,2013-09-25 10:30:00,
2013-09-25 06:00:00,45.2,43.9,29.89,ESE,120,0.0,0.0,95,0.00,,---,0.00,VWS V14.01,2013-09-25 11:00:00,
2013-09-25 06:30:00,44.8,43.5,29.89,ESE,120,0.0,0.0,95,0.01,,---,0.01,VWS V14.01,2013-09-25 11:30:00,
2013-09-25 07:00:00,46.0,44.7,29.90,ESE,120,0.0,0.0,95,0.01,,---,0.01,VWS V14.01,2013-09-25 12:00:00,
2013-09-25 07:30:00,47.6,46.5,29.91,ESE,120,0.0,0.0,96,0.01,,---,0.01,VWS V14.01,2013-09-25 12:30:00,
2013-09-25 08:30:00,54.6,53.8,29.91,ESE,120,0.0,0.0,97,0.00,,---,0.01,VWS V14.01,2013-09-25 13:30:00,
2013-09-25 09:00:00,58.4,57.6,29.91,ESE,120,0.0,0.0,97,0.00,,---,0.01,VWS V14.01,2013-09-25 14:00:00,
2013-09-25 09:30:00,62.6,57.0,29.90,ESE,113,4.0,9.0,82,0.00,,---,0.01,VWS V14.01,2013-09-25 14:30:00,
2013-09-25 10:00:00,64.3,53.9,29.91,WSW,244,0.0,12.0,69,0.00,,---,0.01,VWS V14.01,2013-09-25 15:00:00,
2013-09-25 10:30:00,64.9,53.7,29.91,ESE,113,0.0,14.0,67,0.00,,---,0.01,VWS V14.01,2013-09-25 15:30:00,
2013-09-25 11:00:00,65.1,53.1,29.91,SE,126,0.0,15.0,65,0.00,,---,0.01,VWS V14.01,2013-09-25 16:00:00,
2013-09-25 11:30:00,66.0,53.1,29.90,NE,49,0.0,18.0,63,0.00,,---,0.01,VWS V14.01,2013-09-25 16:30:00,
2013-09-25 12:00:00,65.2,53.6,29.89,SSE,155,0.0,11.0,66,0.00,,---,0.01,VWS V14.01,2013-09-25 17:00:00,
2013-09-25 12:30:00,68.4,54.0,29.89,South,183,4.0,6.0,60,0.00,,---,0.01,VWS V14.01,2013-09-25 17:30:00,
2013-09-25 13:00:00,67.6,52.8,29.88,SE,136,5.0,13.0,59,0.00,,---,0.01,VWS V14.01,2013-09-25 18:00:00,
2013-09-25 13:30:00,66.3,53.3,29.87,SE,140,0.0,7.0,63,0.00,,---,0.01,VWS V14.01,2013-09-25 18:30:00,
2013-09-25 14:00:00,66.9,52.1,29.86,ENE,71,0.0,10.0,59,0.00,,---,0.01,VWS V14.01,2013-09-25 19:00:00,
2013-09-25 14:30:00,68.0,53.6,29.86,SW,220,0.0,12.0,60,0.00,,---,0.01,VWS V14.01,2013-09-25 19:30:00,
2013-09-25 15:00:00,67.2,53.3,29.86,SW,229,0.0,10.0,61,0.00,,---,0.01,VWS V14.01,2013-09-25 20:00:00,
2013-09-25 15:30:00,67.0,52.7,29.86,WSW,248,0.0,7.0,60,0.00,,---,0.01,VWS V14.01,2013-09-25 20:30:00,
2013-09-25 16:00:00,66.5,52.2,29.86,WSW,250,1.0,9.0,60,0.00,,---,0.01,VWS V14.01,2013-09-25 21:00:00,
2013-09-25 16:30:00,65.6,52.2,29.86,SSE,147,0.0,10.0,62,0.00,,---,0.01,VWS V14.01,2013-09-25 21:30:00,
2013-09-25 17:00:00,64.7,50.5,29.84,SW,224,0.0,9.0,60,0.00,,---,0.01,VWS V14.01,2013-09-25 22:00:00,
2013-09-25 17:30:00,63.8,51.4,29.87,West,273,2.0,9.0,64,0.00,,---,0.01,VWS V14.01,2013-09-25 22:30:00,
2013-09-25 18:00:00,62.6,51.1,29.87,ENE,76,0.0,5.0,66,0.00,,---,0.01,VWS V14.01,2013-09-25 23:00:00,
2013-09-25 18:30:00,59.6,49.8,29.87,South,169,0.0,3.0,70,0.00,,---,0.01,VWS V14.01,2013-09-25 23:30:00,
2013-09-25 19:00:00,56.8,49.0,29.88,South,169,0.0,0.0,75,0.00,,---,0.01,VWS V14.01,2013-09-26 00:00:00,
2013-09-25 19:30:00,52.9,47.6,29.88,South,169,0.0,0.0,82,0.00,,---,0.01,VWS V14.01,2013-09-26 00:30:00,
2013-09-25 20:30:00,49.1,46.0,29.88,South,169,0.0,0.0,89,0.00,,---,0.01,VWS V14.01,2013-09-26 01:30:00,
2013-09-25 21:00:00,48.6,46.1,29.88,South,169,0.0,0.0,91,0.00,,---,0.01,VWS V14.01,2013-09-26 02:00:00,
2013-09-25 21:30:00,47.8,45.6,29.88,South,169,0.0,0.0,92,0.00,,---,0.01,VWS V14.01,2013-09-26 02:30:00,
2013-09-25 22:00:00,47.0,44.8,29.89,South,169,0.0,0.0,92,0.00,,---,0.01,VWS V14.01,2013-09-26 03:00:00,
2013-09-25 22:30:00,46.9,45.0,29.88,South,169,0.0,0.0,93,0.00,,---,0.01,VWS V14.01,2013-09-26 03:30:00,
2013-09-25 23:00:00,46.5,44.6,29.88,South,169,0.0,0.0,93,0.00,,---,0.01,VWS V14.01,2013-09-26 04:00:00,
2013-09-25 23:30:00,46.6,45.0,29.88,South,169,0.0,0.0,94,0.00,,---,0.01,VWS V14.01,2013-09-26 04:30:00,